Location: ??????
(55.7522°N, 37.6156°E)
Time: 17:59:13
(UTC+00:00)

Lacrosse 4 Rocket - Pass Details

Date: 14 June 2025
Orbit: 512 x 577 km, 68.0° (Epoch: 12 July)

Event Time Altitude Azimuth Distance (km) Brightness Sun altitude
Rises 19:17:59 0° 315° (NW) 2,765 6.8 -6.1°
Reaches altitude 10° 19:20:22 10° 305° (NW) 1,874 5.2 -6.3°
Maximum altitude 19:24:03 30° 243° (WSW) 1,031 2.7 -6.5°
Drops below altitude 10° 19:27:46 10° 182° (S) 1,883 3.5 -6.8°
Enters shadow 19:28:37 - 177° (S) 2,189 3.8 -6.8°
